Tracking 25701 objects as of 3-Jul-2022
HD Live streaming from Space Station
objects crossing your sky now

SCOUT A DEB

Track SCOUT A DEB now!
10-day predictions


NORAD ID: 3214
Int'l Code: 1968-012D
Perigee: 1,019.1 km
Apogee: 1,298.8 km
Inclination: 89.9 °
Period: 108.4 minutes
Semi major axis: 7529 km
RCS: 0.049 m2 (small)
Launch date: March 2, 1968
Source: United States (US)
Launch site: AIR FORCE WESTERN TEST RANGE (AFWTR)

Note: This is SATELLITE DEBRIS
aabbcc
Your satellite tracking list
Your tracking list is empty




NASA's NSSDC Master Catalog

Two Line Element Set (TLE):
1 03214U 68012D   22183.81639178  .00000105  00000-0  19331-3 0  9992
2 03214  89.8951 124.2452 0185741 327.5307  85.5770 13.28661106392566
Source of the keplerian elements: AFSPC